Location: Berbisdorf
(50.7638°N, 12.9442°E)
Time: 12:58:53
(UTC+00:00)

STARLINK-1317 - Pass Details

Date: 09 October 2020
Orbit: 549 x 550 km, 53.0° (Epoch: 27 October)

Event Time Altitude Azimuth Distance (km) Brightness Sun altitude
Exits shadow 02:06:47 19° 104° (ESE) 1,360 6.0 -30.5°
Drops below altitude 10° 02:08:28 10° 85° (E) 1,824 7.0 -30.3°
Sets 02:11:00 0° 71° (ENE) 2,722 8.3 -30.0°
